Вернуться в каталог

STARLINK-32011

АктивенСвязьVLEO
NORAD 60030·PAYLOAD·🇺🇸 United States

Запущен Jun 8, 2024 с Cape Canaveral Space Force Station

Loading…

Ближайшие Пролёты (ближайшие 24 часа)

TLE

СвежийSource: CelesTrak SupGP

Эпоха: Sep 14, 2026, 21:32 UTC

1 60030C 24111Q   26257.89770833  .00048215  00000+0  14248-2 0  2572
2 60030  53.1572 272.2322 0001323  84.7723   7.2452 15.34360518    11

Отслеживайте STARLINK-32011 в реальном времени с AllMySat

Download on the App Store